RH
40 37 38 42 42 40 38 39 45 47 47 48 57 71 86 94 96 97 98 100 99 98
41 43 43 46 45 40 42 38 45 48 49 56 70 94 94 97 99 98 99 99 100 99
41 42 44 44 44 44 46 45 46 46 50 62 88 86 97 97 90 98 96 99 100 100
42 42 42 41 42 44 46 44 44 44 52 74 92 96 100 97 98 98 100 100 100 100
42 41 41 40 41 44 43 43 41 45 62 81 94 96 97 99 100 100 100 100 100 100
44 41 41 40 40 39 41 40 40 47 55 94 97 94 96 100 100 99 100 100 100 100
43 39 38 38 38 39 38 38 39 48 53 95 96 96 98 97 98 99 99 100 100 100
37 32 35 37 38 37 38 37 40 52 57 94 98 99 99 99 99 98 98 99 100 100
29 27 33 34 36 36 39 38 47 54 51 92 97 96 100 99 98 97 96 98 99 100
26 26 30 30 32 35 41 43 54 48 45 85 96 95 98 100 98 94 95 97 99 99
25 26 28 31 33 36 37 41 44 43 45 81 96 96 97 96 95 92 92 94 97 97
26 27 29 32 35 35 34 36 37 37 43 63 79 85 97 90 86 87 93 89 94 94
24 27 30 35 35 33 32 32 30 33 42 51 57 65 79 81 78 85 86 85 89 93
23 25 31 35 34 33 33 36 42 38 42 44 51 52 62 76 79 83 86 90 92 91
Wind_Speed
10 8 9 11 11 10 11 12 15 15 15 16 14 14 12 10 10 11 9 9 9 8
9 11 11 13 13 11 13 12 15 16 16 15 16 14 15 10 9 8 8 10 10 9
10 11 12 12 14 14 14 15 16 17 17 16 14 15 14 8 8 9 9 7 9 8
11 12 12 12 13 14 15 16 16 17 16 16 16 13 10 11 11 12 10 7 7 10
11 12 13 14 15 15 16 16 16 16 16 16 15 14 13 12 11 12 11 9 10 9
11 12 14 15 15 15 16 16 17 15 15 15 14 16 16 13 13 13 10 12 12 6
12 13 13 14 15 15 16 16 17 16 15 17 15 17 16 15 14 12 11 11 10 6
11 12 13 14 15 15 16 15 16 16 15 15 13 14 19 15 12 12 12 10 10 9
12 13 13 14 15 16 15 15 16 15 16 19 13 31 25 17 11 13 12 12 10 8
12 13 14 15 16 16 15 16 14 16 17 20 19 33 27 21 11 12 16 16 14 12
12 13 14 15 16 16 14 14 13 16 19 18 18 32 26 22 14 16 20 22 18 16
12 13 15 16 16 16 15 15 15 16 17 19 22 32 29 19 15 16 18 19 24 19
11 13 14 15 15 14 15 15 13 15 16 20 18 31 33 24 12 17 14 18 22 35
11 11 13 13 14 15 15 15 15 16 16 19 21 22 31 32 17 14 14 15 15 17
Wind_Direction
348 341 336 341 335 327 330 326 325 327 323 319 327 321 316 299 294 281 271 258 259 248
352 348 342 340 337 336 331 325 335 328 327 333 335 332 319 300 290 297 290 271 256 244
353 350 346 339 342 340 334 334 335 336 337 341 335 319 308 301 301 294 283 260 252 243
357 352 347 346 346 344 338 341 340 342 343 350 329 334 326 329 319 310 295 283 272 256
0 353 352 352 348 347 344 345 345 352 358 339 342 337 338 325 320 316 323 317 300 282
2 356 356 354 348 350 349 350 354 358 338 10 344 345 345 340 339 340 334 326 316 314
3 360 359 353 352 354 353 358 2 6 5 9 348 352 349 344 342 346 347 330 335 13
5 5 360 357 359 359 1 3 9 8 7 14 357 355 348 347 350 9 350 356 2 19
8 8 4 5 5 6 3 9 14 12 3 15 5 1 355 359 4 17 17 8 9 29
12 10 9 9 13 7 7 13 8 7 11 31 10 8 1 1 16 21 32 30 20 18
14 13 14 13 14 11 7 10 15 9 26 34 14 14 8 12 23 26 28 33 25 33
17 15 17 15 12 14 12 11 17 18 26 31 23 21 21 23 28 31 32 32 36 34
24 19 20 18 14 15 17 17 19 25 20 42 27 21 28 31 28 36 34 35 36 35
26 24 24 22 20 20 21 20 20 24 24 21 33 24 27 34 32 33 37 37 33 36